Time,TemperatureF,DewpointF,PressureIn,WindDirection,WindDirectionDegrees,WindSpeedMPH,WindSpeedGustMPH,Humidity,HourlyPrecipIn,Conditions,Clouds,dailyrainin,SoftwareType,DateUTC
2017-03-27 00:01:00,54.4,48.7,29.94,SE,136,0.0,2.0,81,0.00,,,0.00,WUHU216DAVISVP2,2017-03-27 05:01:00,
2017-03-27 00:06:00,54.1,48.8,29.94,SSE,165,0.0,1.0,82,0.00,,,0.00,WUHU216DAVISVP2,2017-03-27 05:06:00,
2017-03-27 00:11:00,53.8,48.5,29.95,SSE,165,1.0,1.0,82,0.00,,,0.00,WUHU216DAVISVP2,2017-03-27 05:11:00,
2017-03-27 00:16:00,53.3,48.3,29.95,SSE,168,1.0,1.0,83,0.00,,,0.00,WUHU216DAVISVP2,2017-03-27 05:16:00,
2017-03-27 00:21:00,52.8,48.1,29.95,South,176,0.0,2.0,84,0.00,,,0.00,WUHU216DAVISVP2,2017-03-27 05:21:00,
2017-03-27 00:26:00,52.4,47.7,29.95,South,176,0.0,2.0,84,0.00,,,0.00,WUHU216DAVISVP2,2017-03-27 05:26:00,
2017-03-27 00:31:00,52.0,47.6,29.95,South,176,0.0,2.0,85,0.00,,,0.00,WUHU216DAVISVP2,2017-03-27 05:31:00,
2017-03-27 00:36:00,51.9,47.5,29.95,South,174,0.0,2.0,85,0.00,,,0.00,WUHU216DAVISVP2,2017-03-27 05:36:00,
2017-03-27 00:41:00,51.6,47.5,29.94,SSE,160,0.0,1.0,86,0.00,,,0.00,WUHU216DAVISVP2,2017-03-27 05:41:00,
2017-03-27 00:46:00,51.3,47.2,29.95,SSE,160,0.0,1.0,86,0.00,,,0.00,WUHU216DAVISVP2,2017-03-27 05:46:00,
2017-03-27 00:51:00,51.3,47.5,29.95,SSE,160,0.0,1.0,87,0.00,,,0.00,WUHU216DAVISVP2,2017-03-27 05:51:00,
2017-03-27 00:56:00,51.2,47.4,29.95,SSE,160,0.0,1.0,87,0.00,,,0.00,WUHU216DAVISVP2,2017-03-27 05:56:00,
2017-03-27 01:01:00,51.5,48.0,29.94,SE,141,0.0,1.0,88,0.00,,,0.00,WUHU216DAVISVP2,2017-03-27 06:01:00,
2017-03-27 01:06:00,51.7,47.9,29.94,SE,141,0.0,1.0,87,0.00,,,0.00,WUHU216DAVISVP2,2017-03-27 06:06:00,
2017-03-27 01:11:00,51.9,48.2,29.93,SE,135,1.0,1.0,87,0.00,,,0.00,WUHU216DAVISVP2,2017-03-27 06:11:00,
2017-03-27 01:16:00,51.7,48.0,29.93,ESE,122,0.0,1.0,87,0.00,,,0.00,WUHU216DAVISVP2,2017-03-27 06:16:00,
2017-03-27 01:21:00,51.4,47.4,29.94,SE,124,0.0,1.0,86,0.00,,,0.00,WUHU216DAVISVP2,2017-03-27 06:21:00,
2017-03-27 01:26:00,51.5,47.7,29.94,SSE,155,1.0,1.0,87,0.00,,,0.00,WUHU216DAVISVP2,2017-03-27 06:26:00,
2017-03-27 01:31:00,51.6,47.8,29.93,SE,141,1.0,2.0,87,0.00,,,0.00,WUHU216DAVISVP2,2017-03-27 06:31:00,
2017-03-27 01:36:00,51.5,47.7,29.93,SE,132,0.0,2.0,87,0.00,,,0.00,WUHU216DAVISVP2,2017-03-27 06:36:00,
2017-03-27 01:41:00,51.3,47.2,29.94,SE,132,0.0,2.0,86,0.00,,,0.00,WUHU216DAVISVP2,2017-03-27 06:41:00,
2017-03-27 01:46:00,51.1,47.3,29.94,SE,133,0.0,1.0,87,0.00,,,0.00,WUHU216DAVISVP2,2017-03-27 06:46:00,
2017-03-27 01:51:00,50.8,47.0,29.94,SE,133,0.0,1.0,87,0.00,,,0.00,WUHU216DAVISVP2,2017-03-27 06:51:00,
2017-03-27 01:56:00,50.6,46.9,29.94,SE,133,0.0,1.0,87,0.00,,,0.00,WUHU216DAVISVP2,2017-03-27 06:56:00,
2017-03-27 02:01:00,50.4,47.0,29.94,SE,133,0.0,0.0,88,0.00,,,0.00,WUHU216DAVISVP2,2017-03-27 07:01:00,
2017-03-27 02:06:00,50.4,47.0,29.94,SE,132,0.0,1.0,88,0.00,,,0.00,WUHU216DAVISVP2,2017-03-27 07:06:00,
2017-03-27 02:11:00,50.3,46.9,29.94,SE,132,0.0,1.0,88,0.00,,,0.00,WUHU216DAVISVP2,2017-03-27 07:11:00,
2017-03-27 02:16:00,50.3,47.2,29.94,SE,132,0.0,1.0,89,0.00,,,0.00,WUHU216DAVISVP2,2017-03-27 07:16:00,
2017-03-27 02:21:00,50.1,46.7,29.94,SE,132,0.0,1.0,88,0.00,,,0.00,WUHU216DAVISVP2,2017-03-27 07:21:00,
2017-03-27 02:26:00,49.6,46.2,29.94,SE,132,0.0,1.0,88,0.00,,,0.00,WUHU216DAVISVP2,2017-03-27 07:26:00,
2017-03-27 02:31:00,49.6,46.5,29.94,SE,132,0.0,0.0,89,0.00,,,0.00,WUHU216DAVISVP2,2017-03-27 07:31:00,
2017-03-27 02:36:00,49.6,46.7,29.93,SE,127,1.0,1.0,90,0.00,,,0.00,WUHU216DAVISVP2,2017-03-27 07:36:00,
2017-03-27 02:41:00,49.7,46.8,29.93,SE,127,0.0,1.0,90,0.00,,,0.00,WUHU216DAVISVP2,2017-03-27 07:41:00,
2017-03-27 02:46:00,49.8,46.9,29.92,SE,126,1.0,1.0,90,0.00,,,0.00,WUHU216DAVISVP2,2017-03-27 07:46:00,
2017-03-27 02:51:00,49.8,46.9,29.92,SE,126,0.0,1.0,90,0.00,,,0.00,WUHU216DAVISVP2,2017-03-27 07:51:00,
2017-03-27 02:56:00,49.7,46.8,29.91,ESE,120,1.0,1.0,90,0.00,,,0.00,WUHU216DAVISVP2,2017-03-27 07:56:00,
2017-03-27 03:01:00,49.9,47.0,29.91,ESE,120,0.0,1.0,90,0.00,,,0.00,WUHU216DAVISVP2,2017-03-27 08:01:00,
2017-03-27 03:06:00,49.8,46.9,29.91,ESE,119,1.0,2.0,90,0.00,,,0.00,WUHU216DAVISVP2,2017-03-27 08:06:00,
2017-03-27 03:11:00,50.1,47.5,29.91,ESE,120,0.0,2.0,91,0.00,,,0.00,WUHU216DAVISVP2,2017-03-27 08:11:00,
2017-03-27 03:16:00,50.3,47.7,29.91,ESE,122,0.0,2.0,91,0.00,,,0.00,WUHU216DAVISVP2,2017-03-27 08:16:00,
2017-03-27 03:21:00,50.6,47.8,29.91,SE,124,0.0,2.0,90,0.00,,,0.00,WUHU216DAVISVP2,2017-03-27 08:21:00,
2017-03-27 03:26:00,50.7,47.9,29.90,ESE,121,1.0,2.0,90,0.00,,,0.00,WUHU216DAVISVP2,2017-03-27 08:26:00,
2017-03-27 03:31:00,50.6,47.5,29.90,ESE,121,1.0,1.0,89,0.00,,,0.00,WUHU216DAVISVP2,2017-03-27 08:31:00,
2017-03-27 03:36:00,50.6,47.7,29.90,ESE,118,1.0,2.0,90,0.00,,,0.00,WUHU216DAVISVP2,2017-03-27 08:36:00,
2017-03-27 03:41:00,50.7,47.5,29.90,ESE,119,0.0,2.0,89,0.00,,,0.00,WUHU216DAVISVP2,2017-03-27 08:41:00,
2017-03-27 03:46:00,50.6,47.7,29.90,ESE,119,1.0,2.0,90,0.00,,,0.00,WUHU216DAVISVP2,2017-03-27 08:46:00,
2017-03-27 03:51:00,50.5,47.3,29.89,ESE,119,1.0,2.0,89,0.00,,,0.00,WUHU216DAVISVP2,2017-03-27 08:51:00,
2017-03-27 03:56:00,50.4,47.5,29.89,ESE,119,1.0,2.0,90,0.00,,,0.00,WUHU216DAVISVP2,2017-03-27 08:56:00,
2017-03-27 04:01:00,50.4,47.5,29.89,ESE,113,3.0,3.0,90,0.00,,,0.00,WUHU216DAVISVP2,2017-03-27 09:01:00,
2017-03-27 04:06:00,50.8,47.9,29.89,ESE,115,0.0,3.0,90,0.00,,,0.00,WUHU216DAVISVP2,2017-03-27 09:06:00,
2017-03-27 04:11:00,50.8,47.9,29.89,ESE,115,1.0,3.0,90,0.00,,,0.00,WUHU216DAVISVP2,2017-03-27 09:11:00,
2017-03-27 04:16:00,50.8,47.6,29.89,ESE,115,0.0,3.0,89,0.00,,,0.00,WUHU216DAVISVP2,2017-03-27 09:16:00,
2017-03-27 04:21:00,50.4,47.2,29.89,ESE,115,1.0,3.0,89,0.00,,,0.00,WUHU216DAVISVP2,2017-03-27 09:21:00,
2017-03-27 04:26:00,50.4,47.5,29.88,ESE,114,2.0,3.0,90,0.00,,,0.00,WUHU216DAVISVP2,2017-03-27 09:26:00,
2017-03-27 04:31:00,50.8,48.3,29.88,ESE,113,2.0,4.0,91,0.00,,,0.00,WUHU216DAVISVP2,2017-03-27 09:31:00,
2017-03-27 04:36:00,50.9,48.1,29.88,ESE,112,3.0,4.0,90,0.00,,,0.00,WUHU216DAVISVP2,2017-03-27 09:36:00,
2017-03-27 04:41:00,51.0,48.1,29.88,ENE,68,3.0,4.0,90,0.00,,,0.00,WUHU216DAVISVP2,2017-03-27 09:41:00,
2017-03-27 04:46:00,51.0,48.1,29.88,East,84,1.0,4.0,90,0.00,,,0.00,WUHU216DAVISVP2,2017-03-27 09:46:00,
2017-03-27 04:51:00,51.0,48.1,29.88,ENE,67,2.0,4.0,90,0.00,,,0.00,WUHU216DAVISVP2,2017-03-27 09:51:00,
2017-03-27 04:56:00,51.0,48.1,29.88,SE,142,2.0,5.0,90,0.00,,,0.00,WUHU216DAVISVP2,2017-03-27 09:56:00,
2017-03-27 05:01:00,51.0,48.1,29.88,ENE,69,2.0,5.0,90,0.00,,,0.00,WUHU216DAVISVP2,2017-03-27 10:01:00,
2017-03-27 05:06:00,50.8,47.9,29.88,ENE,74,2.0,5.0,90,0.00,,,0.00,WUHU216DAVISVP2,2017-03-27 10:06:00,
2017-03-27 05:11:00,50.6,47.7,29.88,ENE,75,2.0,5.0,90,0.00,,,0.00,WUHU216DAVISVP2,2017-03-27 10:11:00,
2017-03-27 05:16:00,50.6,47.7,29.88,East,86,2.0,5.0,90,0.00,,,0.00,WUHU216DAVISVP2,2017-03-27 10:16:00,
2017-03-27 05:18:00,50.6,47.7,29.88,East,79,1.0,5.0,90,0.00,,,0.00,WUHU216DAVISVP2,2017-03-27 10:18:00,
2017-03-27 05:23:00,50.7,48.1,29.88,ENE,76,1.0,4.0,91,0.00,,,0.00,WUHU216DAVISVP2,2017-03-27 10:23:00,
2017-03-27 05:28:00,50.8,48.2,29.88,ENE,77,2.0,4.0,91,0.00,,,0.00,WUHU216DAVISVP2,2017-03-27 10:28:00,
2017-03-27 05:33:00,50.8,48.3,29.88,ENE,65,4.0,4.0,91,0.00,,,0.00,WUHU216DAVISVP2,2017-03-27 10:33:00,
2017-03-27 05:38:00,50.8,48.3,29.88,ENE,67,4.0,5.0,91,0.00,,,0.00,WUHU216DAVISVP2,2017-03-27 10:38:00,
2017-03-27 05:43:00,51.0,48.5,29.87,ENE,64,3.0,8.0,91,0.00,,,0.00,WUHU216DAVISVP2,2017-03-27 10:43:00,
2017-03-27 05:48:00,51.2,48.7,29.87,ENE,68,4.0,8.0,91,0.00,,,0.00,WUHU216DAVISVP2,2017-03-27 10:48:00,
2017-03-27 05:53:00,51.3,48.7,29.87,ENE,67,5.0,8.0,91,0.00,,,0.00,WUHU216DAVISVP2,2017-03-27 10:53:00,
2017-03-27 05:58:00,51.4,48.8,29.87,ENE,66,3.0,8.0,91,0.00,,,0.00,WUHU216DAVISVP2,2017-03-27 10:58:00,
2017-03-27 06:03:00,51.5,48.9,29.88,ENE,73,3.0,7.0,91,0.00,,,0.00,WUHU216DAVISVP2,2017-03-27 11:03:00,
2017-03-27 06:08:00,51.7,49.1,29.88,East,86,2.0,7.0,91,0.00,,,0.00,WUHU216DAVISVP2,2017-03-27 11:08:00,
2017-03-27 06:13:00,51.7,49.1,29.88,East,83,2.0,5.0,91,0.00,,,0.00,WUHU216DAVISVP2,2017-03-27 11:13:00,
2017-03-27 06:18:00,51.8,49.2,29.88,ENE,67,3.0,5.0,91,0.00,,,0.00,WUHU216DAVISVP2,2017-03-27 11:18:00,
2017-03-27 06:23:00,51.8,49.3,29.87,ENE,62,4.0,6.0,91,0.00,,,0.00,WUHU216DAVISVP2,2017-03-27 11:23:00,
2017-03-27 06:28:00,51.9,49.3,29.87,ENE,72,3.0,6.0,91,0.00,,,0.00,WUHU216DAVISVP2,2017-03-27 11:28:00,
2017-03-27 06:33:00,51.9,49.3,29.87,ENE,70,3.0,6.0,91,0.00,,,0.00,WUHU216DAVISVP2,2017-03-27 11:33:00,
2017-03-27 06:38:00,52.0,49.4,29.87,ENE,61,5.0,6.0,91,0.00,,,0.00,WUHU216DAVISVP2,2017-03-27 11:38:00,
2017-03-27 06:43:00,52.1,49.5,29.86,ENE,70,4.0,7.0,91,0.00,,,0.00,WUHU216DAVISVP2,2017-03-27 11:43:00,
2017-03-27 06:48:00,52.2,49.6,29.86,ENE,58,6.0,8.0,91,0.00,,,0.00,WUHU216DAVISVP2,2017-03-27 11:48:00,
2017-03-27 06:53:00,52.4,49.5,29.86,ENE,73,4.0,8.0,90,0.00,,,0.00,WUHU216DAVISVP2,2017-03-27 11:53:00,
2017-03-27 06:58:00,52.5,49.6,29.87,ESE,103,3.0,8.0,90,0.00,,,0.00,WUHU216DAVISVP2,2017-03-27 11:58:00,
2017-03-27 07:03:00,52.6,49.8,29.93,SSW,207,14.0,16.0,90,0.00,,,0.00,WUHU216DAVISVP2,2017-03-27 12:03:00,
2017-03-27 07:08:00,53.0,50.4,29.91,SSW,193,7.0,20.0,91,0.00,,,0.00,WUHU216DAVISVP2,2017-03-27 12:08:00,
2017-03-27 07:13:00,53.3,50.4,29.92,SSE,167,5.0,20.0,90,0.00,,,0.00,WUHU216DAVISVP2,2017-03-27 12:13:00,
2017-03-27 07:18:00,53.3,50.4,29.92,SSW,195,7.0,20.0,90,0.00,,,0.00,WUHU216DAVISVP2,2017-03-27 12:18:00,
2017-03-27 07:23:00,53.2,50.6,29.92,SSE,154,7.0,19.0,91,0.02,,,0.02,WUHU216DAVISVP2,2017-03-27 12:23:00,
2017-03-27 07:28:00,53.2,50.6,29.92,SE,136,3.0,14.0,91,0.04,,,0.04,WUHU216DAVISVP2,2017-03-27 12:28:00,
2017-03-27 07:33:00,53.3,51.0,29.91,SE,143,1.0,14.0,92,0.05,,,0.05,WUHU216DAVISVP2,2017-03-27 12:33:00,
2017-03-27 07:38:00,53.4,51.1,29.91,South,175,5.0,10.0,92,0.07,,,0.08,WUHU216DAVISVP2,2017-03-27 12:38:00,
2017-03-27 07:43:00,53.4,51.4,29.90,SE,141,6.0,7.0,93,0.09,,,0.09,WUHU216DAVISVP2,2017-03-27 12:43:00,
2017-03-27 07:48:00,53.5,51.5,29.89,ESE,122,1.0,7.0,93,0.10,,,0.10,WUHU216DAVISVP2,2017-03-27 12:48:00,
2017-03-27 07:53:00,53.6,51.6,29.88,SSE,152,2.0,7.0,93,0.11,,,0.11,WUHU216DAVISVP2,2017-03-27 12:53:00,
2017-03-27 07:58:00,53.7,51.7,29.88,SE,146,4.0,7.0,93,0.12,,,0.12,WUHU216DAVISVP2,2017-03-27 12:58:00,
2017-03-27 08:03:00,53.9,52.2,29.86,ENE,66,3.0,7.0,94,0.13,,,0.13,WUHU216DAVISVP2,2017-03-27 13:03:00,
2017-03-27 08:08:00,54.0,52.3,29.86,ESE,110,4.0,10.0,94,0.13,,,0.13,WUHU216DAVISVP2,2017-03-27 13:08:00,
2017-03-27 08:13:00,54.0,52.3,29.85,East,79,3.0,11.0,94,0.13,,,0.13,WUHU216DAVISVP2,2017-03-27 13:13:00,
2017-03-27 08:16:00,54.0,52.3,29.85,ESE,117,2.0,11.0,94,0.13,,,0.13,WUHU216DAVISVP2,2017-03-27 13:16:00,
2017-03-27 08:21:00,54.0,52.3,29.85,SE,131,3.0,11.0,94,0.12,,,0.13,WUHU216DAVISVP2,2017-03-27 13:21:00,
2017-03-27 08:26:00,54.2,52.5,29.85,East,91,5.0,11.0,94,0.11,,,0.13,WUHU216DAVISVP2,2017-03-27 13:26:00,
2017-03-27 08:30:00,54.3,52.6,29.86,SE,127,1.0,11.0,94,0.09,,,0.13,WUHU216DAVISVP2,2017-03-27 13:30:00,
2017-03-27 08:35:00,54.5,52.8,29.86,SSE,157,2.0,8.0,94,0.07,,,0.13,WUHU216DAVISVP2,2017-03-27 13:35:00,
2017-03-27 08:40:00,54.6,52.9,29.86,ENE,57,3.0,9.0,94,0.05,,,0.13,WUHU216DAVISVP2,2017-03-27 13:40:00,
2017-03-27 08:45:00,54.7,53.0,29.85,East,97,2.0,9.0,94,0.03,,,0.13,WUHU216DAVISVP2,2017-03-27 13:45:00,
2017-03-27 08:51:00,54.9,53.2,29.86,ESE,114,5.0,9.0,94,0.02,,,0.13,WUHU216DAVISVP2,2017-03-27 13:51:00,
2017-03-27 08:53:00,54.9,53.2,29.86,SE,146,3.0,9.0,94,0.02,,,0.13,WUHU216DAVISVP2,2017-03-27 13:53:00,
2017-03-27 08:58:00,55.1,53.4,29.86,East,91,3.0,9.0,94,0.01,,,0.13,WUHU216DAVISVP2,2017-03-27 13:58:00,
2017-03-27 09:03:00,55.2,53.5,29.85,East,84,4.0,9.0,94,0.00,,,0.13,WUHU216DAVISVP2,2017-03-27 14:03:00,
2017-03-27 09:04:00,55.2,53.5,29.85,ESE,108,6.0,12.0,94,0.00,,,0.13,WUHU216DAVISVP2,2017-03-27 14:04:00,
2017-03-27 09:09:00,55.2,53.2,29.84,ENE,73,4.0,12.0,93,0.00,,,0.13,WUHU216DAVISVP2,2017-03-27 14:09:00,
2017-03-27 09:14:00,55.2,53.2,29.85,SE,134,4.0,12.0,93,0.01,,,0.14,WUHU216DAVISVP2,2017-03-27 14:14:00,
2017-03-27 09:19:00,55.2,53.2,29.84,ENE,70,9.0,12.0,93,0.01,,,0.14,WUHU216DAVISVP2,2017-03-27 14:19:00,
2017-03-27 09:24:00,55.3,53.3,29.83,ENE,70,7.0,12.0,93,0.01,,,0.14,WUHU216DAVISVP2,2017-03-27 14:24:00,
2017-03-27 09:29:00,55.5,53.5,29.83,ENE,66,11.0,13.0,93,0.01,,,0.14,WUHU216DAVISVP2,2017-03-27 14:29:00,
2017-03-27 09:34:00,55.7,53.7,29.83,ENE,77,8.0,13.0,93,0.01,,,0.14,WUHU216DAVISVP2,2017-03-27 14:34:00,
2017-03-27 09:39:00,55.9,53.9,29.84,ESE,113,2.0,14.0,93,0.01,,,0.14,WUHU216DAVISVP2,2017-03-27 14:39:00,
2017-03-27 09:44:00,56.0,54.0,29.84,ESE,122,5.0,14.0,93,0.01,,,0.14,WUHU216DAVISVP2,2017-03-27 14:44:00,
2017-03-27 09:49:00,56.2,53.9,29.84,ESE,119,6.0,14.0,92,0.01,,,0.14,WUHU216DAVISVP2,2017-03-27 14:49:00,
2017-03-27 09:54:00,56.3,54.0,29.84,SE,134,6.0,14.0,92,0.01,,,0.14,WUHU216DAVISVP2,2017-03-27 14:54:00,
2017-03-27 09:59:00,56.4,54.1,29.84,SE,145,2.0,10.0,92,0.01,,,0.14,WUHU216DAVISVP2,2017-03-27 14:59:00,
2017-03-27 10:04:00,56.4,54.1,29.84,SSE,155,4.0,10.0,92,0.01,,,0.14,WUHU216DAVISVP2,2017-03-27 15:04:00,
2017-03-27 10:09:00,56.4,54.1,29.85,SE,128,3.0,10.0,92,0.01,,,0.14,WUHU216DAVISVP2,2017-03-27 15:09:00,
2017-03-27 10:14:00,56.5,54.2,29.85,SE,140,3.0,10.0,92,0.01,,,0.15,WUHU216DAVISVP2,2017-03-27 15:14:00,
2017-03-27 10:19:00,56.5,54.2,29.85,SE,133,1.0,10.0,92,0.01,,,0.15,WUHU216DAVISVP2,2017-03-27 15:19:00,
2017-03-27 10:24:00,56.5,54.5,29.85,East,98,3.0,9.0,93,0.01,,,0.15,WUHU216DAVISVP2,2017-03-27 15:24:00,
2017-03-27 10:29:00,56.5,54.5,29.85,SE,126,3.0,6.0,93,0.01,,,0.15,WUHU216DAVISVP2,2017-03-27 15:29:00,
2017-03-27 10:34:00,56.4,54.4,29.85,SE,133,4.0,7.0,93,0.01,,,0.15,WUHU216DAVISVP2,2017-03-27 15:34:00,
2017-03-27 10:39:00,56.5,54.5,29.85,SSE,149,2.0,7.0,93,0.01,,,0.15,WUHU216DAVISVP2,2017-03-27 15:39:00,
2017-03-27 10:44:00,56.6,54.6,29.85,SSE,151,4.0,7.0,93,0.01,,,0.15,WUHU216DAVISVP2,2017-03-27 15:44:00,
2017-03-27 10:49:00,56.9,54.9,29.85,ESE,122,3.0,7.0,93,0.01,,,0.15,WUHU216DAVISVP2,2017-03-27 15:49:00,
2017-03-27 10:54:00,57.3,55.3,29.85,SSE,162,3.0,8.0,93,0.01,,,0.15,WUHU216DAVISVP2,2017-03-27 15:54:00,
2017-03-27 10:59:00,58.4,56.7,29.84,SSE,168,2.0,10.0,94,0.01,,,0.15,WUHU216DAVISVP2,2017-03-27 15:59:00,
2017-03-27 11:04:00,59.9,57.9,29.84,SSE,159,5.0,10.0,93,0.01,,,0.15,WUHU216DAVISVP2,2017-03-27 16:04:00,
2017-03-27 11:09:00,60.5,57.9,29.84,South,188,11.0,18.0,91,0.01,,,0.15,WUHU216DAVISVP2,2017-03-27 16:09:00,
2017-03-27 11:14:00,61.1,58.5,29.84,SSW,194,9.0,18.0,91,0.00,,,0.15,WUHU216DAVISVP2,2017-03-27 16:14:00,
2017-03-27 11:19:00,61.3,58.0,29.84,South,172,8.0,18.0,89,0.00,,,0.15,WUHU216DAVISVP2,2017-03-27 16:19:00,
2017-03-27 11:24:00,61.7,58.7,29.84,SSW,212,8.0,18.0,90,0.00,,,0.15,WUHU216DAVISVP2,2017-03-27 16:24:00,
2017-03-27 11:29:00,62.0,57.8,29.84,SSW,207,5.0,18.0,86,0.00,,,0.15,WUHU216DAVISVP2,2017-03-27 16:29:00,
2017-03-27 11:34:00,62.6,58.7,29.83,SSW,199,6.0,18.0,87,0.00,,,0.15,WUHU216DAVISVP2,2017-03-27 16:34:00,
2017-03-27 11:39:00,63.0,58.7,29.83,SW,222,8.0,18.0,86,0.00,,,0.15,WUHU216DAVISVP2,2017-03-27 16:39:00,